GW5122 Weather Reports


time (UTC)temp
C
wind
direction
speed
KPH
gust
KPH
rain 1hr
cm
rain 24hr
cm
rain mn
cm
humidity
%
barometer
mb
20260507231535 13 293 6.4 16.1 0.00 0.05 0.05 46 1007.6
20260507231033 13 298 6.4 12.9 0.00 0.05 0.05 46 1007.8
20260507230529 13 311 9.7 12.9 0.00 0.05 0.05 45 1007.8
20260507230026 13 310 9.7 16.1 0.00 0.05 0.05 48 1007.5
20260507225521 13 295 6.4 11.3 0.00 0.05 0.05 48 1007.8
20260507225018 13 289 11.3 14.5 0.00 0.05 0.05 49 1007.7
20260507224513 13 256 6.4 12.9 0.00 0.05 0.05 47 1007.7
20260507224010 13 332 3.2 16.1 0.00 0.05 0.05 49 1007.5
20260507223506 13 164 1.6 9.7 0.00 0.05 0.05 48 1007.7
20260507223004 13 334 6.4 14.5 0.00 0.05 0.05 50 1007.5
20260507222501 13 291 6.4 14.5 0.00 0.05 0.05 46 1007.7
20260507221957 13 302 4.8 9.7 0.00 0.05 0.05 50 1007.5
20260507221453 12 235 0.0 6.4 0.00 0.05 0.05 54 1007.4
20260507220951 13 257 3.2 11.3 0.00 0.05 0.05 49 1007.2
20260507220448 13 292 3.2 4.8 0.00 0.05 0.05 51 1007.5
20260507215944 12 310 4.8 6.4 0.00 0.05 0.05 55 1007.3
20260507215441 12 293 4.8 12.9 0.00 0.05 0.05 52 1007.4
20260507214938 13 313 11.3 17.7 0.00 0.05 0.05 50 1007.2
20260507214436 13 292 12.9 14.5 0.00 0.05 0.05 49 1007.2
20260507213931 13 182 0.0 6.4 0.00 0.05 0.05 50 1007.1
20260507213428 13 313 9.7 12.9 0.00 0.05 0.05 49 1007.3
20260507212925 13 296 9.7 14.5 0.00 0.05 0.05 47 1007.2
20260507212420 14 123 9.7 14.5 0.00 0.05 0.05 47 1007.2
20260507211918 14 335 12.9 20.9 0.00 0.05 0.05 49 1007.1
20260507211409 14 299 1.6 4.8 0.00 0.05 0.05 51 1007.0
20260507210906 14 336 6.4 6.4 0.00 0.05 0.05 49 1006.9
20260507210403 13 245 3.2 16.1 0.00 0.05 0.05 47 1007.0
20260507205859 13 261 6.4 12.9 0.00 0.05 0.05 52 1007.0
20260507205357 14 166 6.4 14.5 0.00 0.05 0.05 49 1007.1
20260507204852 13 210 4.8 6.4 0.00 0.05 0.05 49 1006.9
20260507204349 13 308 4.8 14.5 0.00 0.05 0.05 51 1006.8
20260507203847 14 162 4.8 12.9 0.00 0.05 0.05 52 1006.9
20260507203344 13 307 6.4 16.1 0.00 0.05 0.05 46 1007.1
20260507202841 13 119 4.8 16.1 0.00 0.05 0.05 49 1007.0
20260507202337 13 228 9.7 16.1 0.00 0.05 0.05 49 1007.1
20260507201832 14 312 14.5 17.7 0.00 0.05 0.05 52 1007.1
20260507201328 14 313 4.8 11.3 0.00 0.05 0.05 50 1007.1
20260507200824 13 286 6.4 14.5 0.00 0.05 0.05 51 1007.3
20260507200321 13 336 4.8 9.7 0.00 0.05 0.05 52 1007.6
20260507195817 14 296 3.2 12.9 0.00 0.05 0.05 50 1007.2
20260507195314 13 318 9.7 14.5 0.00 0.05 0.05 52 1007.5
20260507194811 13 17 8.0 11.3 0.00 0.05 0.05 53 1007.6
20260507194307 13 294 14.5 17.7 0.00 0.05 0.05 51 1007.7
20260507193804 13 301 3.2 9.7 0.00 0.05 0.05 52 1007.4
20260507193301 13 313 9.7 12.9 0.00 0.05 0.05 56 1007.6
20260507192757 13 310 8.0 16.1 0.00 0.05 0.05 57 1007.5
20260507192254 13 327 14.5 17.7 0.00 0.05 0.05 52 1007.5
20260507191750 13 272 6.4 20.9 0.00 0.05 0.05 52 1007.6
20260507191247 13 263 6.4 20.9 0.00 0.05 0.05 53 1007.6
20260507190743 14 35 3.2 6.4 0.00 0.05 0.05 58 1007.6
20260507190242 13 310 8.0 14.5 0.00 0.05 0.05 54 1007.7
20260507185740 13 301 8.0 9.7 0.00 0.05 0.05 55 1007.7
20260507185237 13 307 6.4 17.7 0.00 0.05 0.05 53 1007.3
20260507184735 13 262 0.0 1.6 0.00 0.05 0.05 52 1007.6
20260507184232 13 286 4.8 17.7 0.00 0.05 0.05 50 1007.8
20260507183729 13 320 12.9 17.7 0.00 0.05 0.05 53 1007.6
20260507183226 13 308 8.0 9.7 0.00 0.05 0.05 53 1007.6
20260507182723 13 304 9.7 14.5 0.00 0.05 0.05 58 1008.0
20260507182218 14 127 4.8 11.3 0.00 0.05 0.05 56 1007.8
20260507181715 15 354 14.5 22.5 0.00 0.05 0.05 49 1007.6
20260507181212 14 308 9.7 14.5 0.00 0.05 0.05 54 1007.6
20260507180709 14 281 8.0 9.7 0.00 0.05 0.05 54 1007.6
20260507180205 13 314 8.0 9.7 0.00 0.05 0.05 54 1007.6
20260507175700 13 290 11.3 17.7 0.00 0.05 0.05 54 1007.7
20260507175158 13 283 8.0 22.5 0.00 0.05 0.05 57 1007.8
20260507174655 13 305 16.1 17.7 0.00 0.05 0.05 53 1008.1
20260507174153 13 294 12.9 16.1 0.00 0.05 0.05 48 1008.1
20260507173650 13 281 12.9 16.1 0.00 0.05 0.05 55 1008.3
20260507173147 13 222 3.2 14.5 0.00 0.05 0.05 52 1008.4
20260507172644 13 303 6.4 11.3 0.00 0.05 0.05 54 1007.9
20260507172141 13 301 3.2 12.9 0.00 0.05 0.05 57 1008.4
20260507171641 13 314 11.3 16.1 0.00 0.05 0.05 54 1008.4
20260507171138 13 297 9.7 14.5 0.00 0.05 0.05 58 1008.7
20260507170635 13 174 6.4 9.7 0.00 0.05 0.05 55 1008.3
20260507170133 13 152 4.8 12.9 0.00 0.05 0.05 59 1008.5
20260507165628 12 297 8.0 9.7 0.00 0.05 0.05 58 1008.5
20260507165124 12 310 6.4 9.7 0.00 0.05 0.05 60 1008.9
20260507164620 12 250 3.2 14.5 0.00 0.05 0.05 57 1008.5
20260507164117 12 197 3.2 6.4 0.00 0.05 0.05 51 1008.7
20260507163615 12 291 11.3 12.9 0.00 0.05 0.05 56 1008.9
20260507163113 12 55 3.2 9.7 0.00 0.05 0.05 59 1008.7
20260507162614 12 144 6.4 17.7 0.00 0.05 0.05 54 1008.9
20260507162110 13 295 8.0 11.3 0.00 0.05 0.05 54 1008.8
20260507161607 13 315 4.8 14.5 0.00 0.05 0.05 55 1008.9
20260507161103 12 343 6.4 14.5 0.00 0.05 0.05 56 1009.0
20260507160600 12 298 3.2 11.3 0.00 0.05 0.05 62 1009.1
20260507160056 12 161 3.2 12.9 0.00 0.05 0.05 62 1008.9
20260507155551 12 305 8.0 14.5 0.00 0.05 0.05 60 1008.9
20260507155049 12 313 4.8 11.3 0.00 0.05 0.05 64 1009.0
20260507154545 12 305 4.8 6.4 0.00 0.05 0.05 60 1009.0
20260507154043 12 340 3.2 9.7 0.00 0.05 0.05 58 1009.2
20260507153539 12 216 3.2 25.7 0.00 0.05 0.05 60 1008.9
20260507153035 12 134 9.7 16.1 0.00 0.05 0.05 56 1009.1
20260507152531 12 246 6.4 9.7 0.00 0.05 0.05 55 1009.1
20260507152028 11 293 4.8 11.3 0.00 0.05 0.05 56 1009.1
20260507151524 11 297 6.4 14.5 0.00 0.05 0.05 63 1009.2
20260507151021 11 321 6.4 11.3 0.00 0.05 0.05 56 1009.2
20260507150518 11 286 9.7 12.9 0.00 0.05 0.05 56 1009.1
20260507150015 11 214 4.8 6.4 0.00 0.05 0.05 63 1009.2
20260507145510 11 242 1.6 4.8 0.00 0.05 0.05 64 1009.4
20260507145008 11 218 3.2 6.4 0.00 0.05 0.05 58 1009.7
20260507144504 11 296 6.4 9.7 0.00 0.05 0.05 63 1009.4
20260507144001 12 190 1.6 4.8 0.00 0.05 0.05 60 1009.6
20260507143459 11 29 0.0 9.7 0.00 0.05 0.05 63 1009.5
20260507142955 11 230 4.8 6.4 0.00 0.05 0.05 62 1009.7
20260507142451 11 296 1.6 12.9 0.00 0.05 0.05 64 1009.7
20260507141948 11 115 8.0 11.3 0.00 0.05 0.05 63 1009.7
20260507141444 11 284 1.6 3.2 0.00 0.05 0.05 61 1010.1
20260507140941 11 270 1.6 4.8 0.00 0.05 0.05 59 1010.1
20260507140438 10 58 1.6 6.4 0.00 0.05 0.05 59 1010.1
20260507135936 10 294 8.0 11.3 0.00 0.05 0.05 61 1010.1
20260507135432 10 286 3.2 11.3 0.00 0.05 0.05 62 1010.2
20260507134930 11 298 6.4 9.7 0.00 0.05 0.05 70 1010.5
20260507134426 10 114 1.6 1.6 0.00 0.05 0.05 70 1010.4
20260507133922 10 258 4.8 9.7 0.00 0.05 0.05 74 1010.2
20260507133418 10 329 0.0 3.2 0.00 0.05 0.05 71 1010.4
20260507132917 10 344 1.6 3.2 0.00 0.05 0.05 75 1010.5
20260507132413 10 344 1.6 1.6 0.00 0.05 0.05 73 1010.3
20260507131909 10 344 3.2 3.2 0.00 0.05 0.05 74 1010.2
20260507131406 10 286 3.2 4.8 0.00 0.05 0.05 79 1010.7
20260507130903 9 271 0.0 1.6 0.00 0.05 0.05 78 1010.5
20260507130400 9 271 0.0 4.8 0.00 0.05 0.05 77 1010.5
20260507125859 9 243 0.0 1.6 0.00 0.05 0.05 79 1010.6
20260507125356 8 203 0.0 1.6 0.00 0.05 0.05 81 1010.6
20260507124854 8 241 1.6 3.2 0.00 0.05 0.05 82 1010.5
20260507124349 8 182 0.0 3.2 0.00 0.05 0.05 81 1010.5
20260507123848 8 167 0.0 4.8 0.00 0.05 0.05 86 1010.7
20260507123345 8 180 1.6 3.2 0.00 0.05 0.05 87 1010.8
20260507122841 7 186 1.6 3.2 0.00 0.05 0.05 86 1010.6
20260507122337 7 181 1.6 1.6 0.00 0.05 0.05 85 1010.7
20260507121833 7 163 1.6 1.6 0.00 0.05 0.05 84 1010.7
20260507121329 7 180 1.6 1.6 0.00 0.05 0.05 84 1010.6
20260507120826 7 145 0.0 1.6 0.00 0.05 0.05 87 1010.5
20260507120322 8 181 1.6 3.2 0.00 0.05 0.05 90 1010.4
20260507115818 8 29 0.0 0.0 0.00 0.05 0.05 88 1010.6
20260507115314 7 29 0.0 0.0 0.00 0.05 0.05 99 1010.3
20260507114810 6 29 0.0 1.6 0.00 0.05 0.05 99 1010.3
20260507114308 6 29 0.0 0.0 0.00 0.05 0.05 99 1010.3
20260507113805 6 29 0.0 0.0 0.00 0.05 0.05 99 1010.1
20260507113302 6 29 0.0 0.0 0.00 0.05 0.05 99 1009.9
20260507112759 6 29 0.0 0.0 0.00 0.05 0.05 99 1009.9
20260507112256 6 29 0.0 0.0 0.00 0.05 0.05 99 1010.2
20260507111754 6 29 0.0 0.0 0.00 0.05 0.05 99 1010.2
20260507111250 6 29 0.0 0.0 0.00 0.05 0.05 99 1010.1
20260507110746 6 29 0.0 0.0 0.00 0.05 0.05 99 1009.9
20260507110243 6 29 0.0 0.0 0.00 0.05 0.05 99 1009.8
20260507105740 6 29 0.0 0.0 0.00 0.05 0.05 99 1009.6
20260507105236 6 29 0.0 0.0 0.00 0.05 0.05 99 1009.7
20260507104733 6 29 0.0 0.0 0.00 0.05 0.05 99 1009.6
20260507104230 6 29 0.0 0.0 0.00 0.05 0.05 99 1009.5
20260507103725 6 29 0.0 0.0 0.00 0.05 0.05 99 1009.8
20260507103217 6 29 0.0 0.0 0.00 0.05 0.05 98 1009.4
20260507102713 6 29 0.0 0.0 0.00 0.05 0.05 98 1009.6
20260507102209 6 29 0.0 0.0 0.00 0.05 0.05 98 1009.5
20260507101705 6 29 0.0 0.0 0.00 0.05 0.05 98 1009.5
20260507101201 6 29 0.0 1.6 0.00 0.05 0.05 98 1009.7
20260507100658 6 29 0.0 0.0 0.00 0.05 0.05 98 1009.5
20260507100157 6 29 0.0 1.6 0.00 0.05 0.05 98 1009.4
20260507095654 6 29 1.6 3.2 0.00 0.05 0.05 99 1009.3
20260507095151 6 29 0.0 1.6 0.00 0.05 0.05 99 1009.2
20260507094647 6 29 0.0 0.0 0.00 0.05 0.05 99 1009.3
20260507094144 6 29 0.0 1.6 0.00 0.05 0.05 99 1009.1
20260507093641 6 29 0.0 1.6 0.00 0.05 0.05 99 1009.3
20260507093141 6 29 1.6 3.2 0.00 0.05 0.05 99 1009.4
20260507092636 7 29 0.0 1.6 0.00 0.05 0.05 99 1009.4
20260507092133 7 126 0.0 0.0 0.00 0.05 0.05 99 1009.2
20260507091630 7 202 0.0 0.0 0.00 0.05 0.05 99 1009.2
20260507091126 7 176 0.0 0.0 0.00 0.05 0.05 99 1009.3
20260507090622 7 176 0.0 0.0 0.00 0.05 0.05 99 1009.0
20260507090120 6 175 0.0 0.0 0.00 0.05 0.05 99 1009.0
20260507085616 6 175 0.0 0.0 0.00 0.05 0.05 99 1009.3
20260507085112 7 175 0.0 0.0 0.00 0.05 0.05 99 1009.1
20260507084609 7 175 0.0 0.0 0.00 0.05 0.05 99 1009.3
20260507084106 7 157 0.0 0.0 0.00 0.05 0.05 99 1009.0
20260507083602 7 157 0.0 1.6 0.00 0.05 0.05 99 1009.1
20260507083059 7 160 0.0 0.0 0.00 0.05 0.05 99 1009.1
20260507082555 7 160 0.0 1.6 0.00 0.05 0.05 99 1009.2
20260507082052 7 168 1.6 1.6 0.00 0.05 0.05 99 1009.3
20260507081548 7 168 1.6 1.6 0.00 0.05 0.05 99 1009.2
20260507081046 7 192 0.0 1.6 0.00 0.05 0.05 99 1009.3
20260507080542 7 172 0.0 1.6 0.00 0.05 0.05 99 1009.1
20260507080039 7 176 0.0 0.0 0.00 0.05 0.05 99 1009.3
20260507075533 7 188 0.0 1.6 0.00 0.05 0.05 99 1009.2
20260507075030 7 149 0.0 0.0 0.00 0.05 0.05 99 1009.3
20260507074526 7 152 0.0 0.0 0.00 0.05 0.05 99 1009.2
20260507074025 7 232 0.0 0.0 0.00 0.05 0.05 99 1009.3
20260507073521 7 301 0.0 0.0 0.00 0.05 0.05 99 1009.4
20260507073017 7 301 0.0 0.0 0.00 0.05 0.05 99 1009.3
20260507072515 7 301 0.0 0.0 0.00 0.05 0.05 99 1009.3
20260507072012 7 301 0.0 0.0 0.00 0.05 0.05 99 1009.1
20260507071509 7 301 0.0 0.0 0.00 0.05 0.05 99 1009.2
20260507071006 7 301 0.0 0.0 0.00 0.05 0.05 99 1009.3
20260507070503 7 310 0.0 1.6 0.00 0.05 0.05 99 1009.0
20260507070000 7 311 0.0 1.6 0.00 0.05 0.05 99 1009.1
20260507065456 7 330 1.6 1.6 0.00 0.05 0.05 99 1009.0
20260507064953 7 306 1.6 3.2 0.00 0.05 0.05 99 1009.3
20260507064452 7 352 1.6 3.2 0.18 0.05 0.05 99 1009.0
20260507063949 7 328 4.8 9.7 0.30 0.05 0.05 99 1009.1
20260507063446 8 2 3.2 3.2 0.13 0.03 0.03 99 1009.0
20260507062943 8 247 0.0 0.0 0.00 0.00 0.00 99 1009.1
20260507062440 8 247 0.0 0.0 0.00 0.00 0.00 99 1009.1
20260507061937 8 247 0.0 0.0 0.00 0.00 0.00 99 1009.1
20260507061435 8 247 0.0 1.6 0.00 0.00 0.00 99 1009.2
20260507060934 8 247 0.0 1.6 0.00 0.00 0.00 99 1009.1
20260507060430 8 247 0.0 1.6 0.00 0.00 0.00 99 1009.2
20260507055928 8 247 1.6 1.6 0.00 0.00 0.00 99 1009.2
20260507055423 8 247 1.6 1.6 0.00 0.00 0.00 99 1009.2
20260507054920 8 247 0.0 1.6 0.00 0.00 0.00 99 1009.3
20260507054416 8 247 0.0 0.0 0.00 0.00 0.00 99 1009.3
20260507053913 8 247 0.0 0.0 0.00 0.00 0.00 99 1009.5
20260507053411 8 247 0.0 0.0 0.00 0.00 0.00 99 1009.6
20260507052910 8 247 0.0 0.0 0.00 0.00 0.00 99 1009.7
20260507052406 8 247 0.0 0.0 0.00 0.00 0.00 99 1009.5
20260507051857 8 247 1.6 3.2 0.00 0.00 0.00 99 1009.8
20260507051355 8 247 1.6 1.6 0.00 0.00 0.00 99 1009.8
20260507050851 8 247 0.0 1.6 0.00 0.00 0.00 99 1009.9
20260507050348 8 247 1.6 1.6 0.00 0.00 0.00 99 1009.9
20260507045845 8 247 1.6 1.6 0.00 0.00 0.00 99 1009.8
20260507045341 8 247 0.0 0.0 0.00 0.00 0.00 99 1009.7
20260507044839 8 247 0.0 0.0 0.00 0.00 0.00 99 1009.7
20260507044335 8 247 0.0 0.0 0.00 0.00 0.00 99 1009.9
20260507043831 8 247 0.0 0.0 0.00 0.00 0.00 99 1009.6
20260507043328 8 247 0.0 0.0 0.00 0.00 0.00 99 1009.6
20260507042824 8 247 0.0 0.0 0.00 0.00 0.00 99 1009.7
20260507042320 8 247 0.0 0.0 0.00 0.00 0.00 99 1009.5
20260507041817 8 247 0.0 0.0 0.00 0.00 0.00 99 1009.6
20260507041313 8 247 1.6 3.2 0.00 0.00 0.00 99 1009.7
20260507040811 8 247 1.6 1.6 0.00 0.00 0.00 99 1009.7
20260507040307 8 247 0.0 0.0 0.00 0.00 0.00 99 1009.5
20260507035803 8 247 0.0 0.0 0.00 1.50 1.50 99 1009.7
20260507035258 8 247 0.0 0.0 0.00 1.50 1.50 99 1009.7
20260507034757 8 247 0.0 1.6 0.00 1.50 1.50 99 1009.6
20260507034253 8 134 0.0 0.0 0.18 1.50 1.50 99 1009.7
20260507033751 8 134 0.0 1.6 0.18 1.50 1.50 99 1009.6
20260507033248 8 301 1.6 1.6 0.00 1.47 1.47 99 1009.4
20260507032745 8 301 0.0 0.0 0.00 1.47 1.47 99 1009.8
20260507032241 8 301 1.6 1.6 0.00 1.47 1.47 99 1009.8
20260507031738 8 301 0.0 0.0 0.00 1.47 1.47 99 1010.2
20260507031235 8 301 0.0 0.0 0.00 1.47 1.47 99 1010.4
20260507030732 8 301 0.0 3.2 0.00 1.47 1.47 99 1010.3
20260507030229 8 164 0.0 1.6 0.00 1.47 1.47 99 1010.2
20260507025727 8 229 1.6 1.6 0.00 1.47 1.47 99 1009.7
20260507025223 8 227 0.0 0.0 0.00 1.47 1.47 99 1009.6
20260507024722 8 227 0.0 0.0 0.00 1.47 1.47 99 1009.6
20260507024218 8 227 0.0 1.6 0.00 1.47 1.47 99 1009.4
20260507023714 8 236 0.0 1.6 0.18 1.47 1.47 99 1009.5
20260507023211 8 172 3.2 3.2 0.18 1.47 1.47 99 1009.6
20260507022709 8 198 1.6 1.6 0.00 1.45 1.45 99 1009.7
20260507022204 8 163 1.6 3.2 0.00 1.45 1.45 99 1009.9
20260507021701 8 334 0.0 1.6 0.00 1.45 1.45 99 1009.8
20260507021156 8 335 0.0 0.0 0.00 1.45 1.45 99 1009.6
20260507020655 8 334 1.6 1.6 0.00 1.45 1.45 99 1009.4
20260507020150 8 335 0.0 1.6 0.00 1.45 1.45 99 1009.5
20260507015648 8 329 0.0 0.0 0.00 1.45 1.45 99 1009.3
20260507015145 8 329 0.0 0.0 0.00 1.45 1.45 99 1009.2
20260507014642 8 329 0.0 0.0 0.00 1.45 1.45 99 1009.1
20260507014138 8 120 0.0 0.0 0.00 1.45 1.45 99 1009.2
20260507013635 8 13 0.0 1.6 0.00 1.45 1.45 99 1009.2
20260507013132 8 49 1.6 1.6 0.00 1.45 1.45 99 1009.2
20260507012630 8 49 3.2 3.2 0.00 1.45 1.45 99 1009.0
20260507012124 8 318 3.2 4.8 0.00 1.45 1.45 99 1009.6
20260507011623 8 306 0.0 0.0 0.00 1.45 1.45 99 1009.3
20260507011119 8 322 0.0 0.0 0.00 1.45 1.45 99 1009.1
20260507010614 8 10 0.0 1.6 0.00 1.45 1.45 99 1009.0
20260507010110 8 338 3.2 3.2 0.00 1.45 1.45 99 1008.9
20260507005607 8 324 0.0 3.2 0.00 1.45 1.45 99 1008.8
20260507005103 9 307 6.4 14.5 0.00 1.45 1.45 99 1008.6
20260507004600 9 276 3.2 4.8 0.00 1.45 1.45 99 1008.8
20260507004058 9 29 3.2 6.4 0.00 1.45 1.45 99 1009.0
20260507003554 9 301 0.0 3.2 0.00 1.45 1.45 99 1008.7
20260507003049 9 342 3.2 3.2 0.00 1.45 1.45 99 1008.8
20260507002546 9 300 3.2 4.8 0.00 1.45 1.45 99 1008.6
20260507002042 9 334 0.0 1.6 0.00 1.45 1.45 99 1008.3
20260507001539 9 334 0.0 1.6 0.00 1.45 1.45 99 1008.6
20260507001036 10 334 0.0 3.2 0.00 1.45 1.45 99 1008.9
20260507000532 10 305 1.6 4.8 0.00 1.45 1.45 98 1009.2
20260507000027 10 300 1.6 3.2 0.00 1.45 1.45 98 1009.3
20260506235525 10 308 1.6 3.2 0.00 1.45 1.45 98 1009.1
20260506235015 10 303 1.6 4.8 0.00 1.45 1.45 98 1009.0
20260506234513 10 309 1.6 3.2 0.00 1.45 1.45 97 1009.0
20260506234010 10 305 3.2 3.2 0.00 1.45 1.45 97 1009.0
20260506233507 10 307 3.2 6.4 0.00 1.45 1.45 98 1009.0
20260506233004 10 308 4.8 4.8 0.00 1.45 1.45 98 1009.0
20260506232500 10 305 1.6 4.8 0.00 1.45 1.45 98 1008.9
20260506231955 10 314 1.6 3.2 0.00 1.45 1.45 98 1009.0